Location: Brienzwiler
(46.7508°N, 8.1014°E)
Time: 16:10:17
(UTC+00:00)

SL-08 ROCKET BODY - Pass Details

Date: 05 July 2020
Orbit: 897 x 962 km, 82.9° (Epoch: 11 August)

Event Time Altitude Azimuth Distance (km) Brightness Sun altitude
Rises 19:54:10 0° 176° (S) 3,529 7.0 -4.9°
Reaches altitude 10° 19:56:37 10° 173° (S) 2,600 6.3 -5.2°
Maximum altitude 20:02:27 63° 94° (E) 1,029 4.5 -6.0°
Drops below altitude 10° 20:08:26 10° 14° (NNE) 2,662 7.2 -6.7°
Sets 20:10:58 0° 12° (NNE) 3,620 8.0 -7.0°
